Location: La Junie
(44.7428°N, 2.1773°E)
Time: 08:12:52
(UTC+00:00)

Okean 1 - Pass Details

Date: 15 May 2026
Orbit: 458 x 474 km, 82.5° (Epoch: 6 June)

Event Time Altitude Azimuth Distance (km) Brightness Sun altitude
Exits shadow 21:25:25 48° 105° (ESE) 627 3.2 -18.5°
Maximum altitude 21:25:35 48° 94° (E) 623 3.3 -18.5°
Drops below altitude 10° 21:29:04 10° 19° (NNE) 1,649 6.2 -18.8°
Sets 21:31:13 0° 14° (NNE) 2,535 7.3 -19.0°
